Location: Vienna
(48.2082°N, 16.3738°E)
Time: 16:36:56
(UTC+01:00)

ISS - Pass Details

Date: 14 January 2018
Orbit: 402 x 407 km, 51.6° (Epoch: 23 January)

Event Time Altitude Azimuth Distance (km) Brightness Sun altitude
Exits shadow 04:43:47 15° 114° (ESE) 1,196 -0.8 -28.9°
Drops below altitude 10° 04:44:26 10° 114° (ESE) 1,464 -0.2 -28.7°
Sets 04:46:31 0° 114° (ESE) 2,323 1.0 -28.4°
